This is the latest recevied weather packets stored in our database for station/object KD2SIG. If no packets are shown the sender has not sent any weather packets the latest 10 day(s).
| Time | Temp. | Humidity | Pressure | Rain* | Wind** | Luminosity | Snow |
|---|---|---|---|---|---|---|---|
| 1777726865 | 5° C | 84% | 1014.5 hPa | 0 mm | - | 521 W/m² | - |
| 1777726560 | 5° C | 85% | 1014.5 hPa | 0 mm | - | 281 W/m² | - |
| 1777726258 | 5° C | 86% | 1014.5 hPa | 0 mm | - | 285 W/m² | - |
| 1777725954 | 5° C | 87% | 1014.4 hPa | 0 mm | - | 257 W/m² | - |
| 1777725652 | 5° C | 88% | 1014.4 hPa | 0 mm | - | 245 W/m² | - |
| 1777725350 | 5° C | 89% | 1014.3 hPa | 0 mm | - | 206 W/m² | - |
| 1777725046 | 4.44° C | 90% | 1014.7 hPa | 0 mm | - | 173 W/m² | - |
| 1777724743 | 4.44° C | 91% | 1014.3 hPa | 0 mm | - | 138 W/m² | - |
| 1777724440 | 4.44° C | 92% | 1014.5 hPa | 0 mm | - | 113 W/m² | - |
| 1777724138 | 4.44° C | 92% | 1014.4 hPa | 1.78 mm | - | 93 W/m² | - |
| 1777723835 | 3.89° C | 93% | 1014.3 hPa | 1.78 mm | - | 72 W/m² | - |
| 1777723531 | 3.89° C | 94% | 1014.4 hPa | 0 mm | - | 52 W/m² | - |
| 1777723228 | 4.44° C | 94% | 1014.4 hPa | 0 mm | - | 38 W/m² | - |
| 1777722926 | 4.44° C | 94% | 1014.4 hPa | 0 mm | - | 35 W/m² | - |
| 1777722621 | 4.44° C | 94% | 1014.1 hPa | 0 mm | - | 27 W/m² | - |
| 1777722319 | 4.44° C | 95% | 1014.4 hPa | 0 mm | - | 20 W/m² | - |
| 1777722015 | 4.44° C | 95% | 1014.1 hPa | 0 mm | - | 16 W/m² | - |
| 1777721713 | 4.44° C | 95% | 1014 hPa | 0 mm | - | 14 W/m² | - |
| 1777721412 | 4.44° C | 95% | 1014.2 hPa | 0 mm | - | 13 W/m² | - |
| 1777721109 | 4.44° C | 94% | 1014 hPa | 0 mm | - | 13 W/m² | - |
| 1777720806 | 4.44° C | 94% | 1014 hPa | 0 mm | - | 9 W/m² | - |
| 1777720504 | 4.44° C | 94% | 1013.9 hPa | 0 mm | - | 7 W/m² | - |
| 1777720201 | 4.44° C | 94% | 1014 hPa | 0 mm | - | 7 W/m² | - |
| 1777719898 | 4.44° C | 95% | 1013.8 hPa | 0 mm | - | 12 W/m² | - |
| 1777719595 | 4.44° C | 95% | 1013.8 hPa | 0 mm | - | 15 W/m² | - |
* Rain latest hour (hover to see other rain measurements)
** Current wind speed in m/s (hover to see current wind gust speed)